Time,TemperatureF,DewpointF,PressureIn,WindDirection,WindDirectionDegrees,WindSpeedMPH,WindSpeedGustMPH,Humidity,HourlyPrecipIn,Conditions,Clouds,dailyrainin,SoftwareType,DateUTC
2013-03-20 00:00:00,18.0,13.2,30.49,NE,45,4.0,22.0,81,0.00,,,-99.99,Weather View 32 v60,2013-03-20 05:00:00,
2013-03-20 00:15:00,18.0,12.6,30.49,NNW,337,5.0,22.0,79,0.00,,,-99.99,Weather View 32 v60,2013-03-20 05:15:00,
2013-03-20 00:30:00,17.0,12.5,30.50,NNW,337,6.0,20.0,82,0.00,,,-99.99,Weather View 32 v60,2013-03-20 05:30:00,
2013-03-20 00:45:00,17.0,12.7,30.50,NW,315,7.0,20.0,83,0.00,,,-99.99,Weather View 32 v60,2013-03-20 05:45:00,
2013-03-20 00:47:00,17.0,12.7,30.50,NW,315,7.0,20.0,83,0.00,,,-99.99,Weather View 32 v60,2013-03-20 05:47:00,
2013-03-20 01:00:00,17.0,12.2,30.50,NNW,337,7.0,20.0,81,0.00,,,-99.99,Weather View 32 v60,2013-03-20 06:00:00,
2013-03-20 01:15:00,17.0,12.2,30.50,North,360,7.0,20.0,81,0.00,,,-99.99,Weather View 32 v60,2013-03-20 06:15:00,
2013-03-20 01:30:00,16.0,10.9,30.50,NNW,337,8.0,20.0,80,0.00,,,-99.99,Weather View 32 v60,2013-03-20 06:30:00,
2013-03-20 01:45:00,16.0,11.2,30.50,NNW,337,13.0,23.0,81,0.00,,,-99.99,Weather View 32 v60,2013-03-20 06:45:00,
2013-03-20 02:00:00,16.0,10.9,30.50,NNW,337,16.0,23.0,80,0.00,,,-99.99,Weather View 32 v60,2013-03-20 07:00:00,
2013-03-20 02:15:00,15.0,10.8,30.52,NNW,337,6.0,23.0,83,0.00,,,-99.99,Weather View 32 v60,2013-03-20 07:15:00,
2013-03-20 02:30:00,15.0,10.5,30.52,NNW,337,12.0,23.0,82,0.00,,,-99.99,Weather View 32 v60,2013-03-20 07:30:00,
2013-03-20 02:45:00,14.0,10.1,30.51,North,360,10.0,22.0,84,0.00,,,-99.99,Weather View 32 v60,2013-03-20 07:45:00,
2013-03-20 03:00:00,14.0,10.6,30.52,NW,315,0.0,22.0,86,0.00,,,-99.99,Weather View 32 v60,2013-03-20 08:00:00,
2013-03-20 03:15:00,14.0,10.9,30.52,North,360,5.0,19.0,87,0.00,,,-99.99,Weather View 32 v60,2013-03-20 08:15:00,
2013-03-20 03:30:00,13.0,8.8,30.52,NNW,337,10.0,24.0,83,0.00,,,-99.99,Weather View 32 v60,2013-03-20 08:30:00,
2013-03-20 03:45:00,13.0,9.3,30.52,NNW,337,4.0,24.0,85,0.00,,,-99.99,Weather View 32 v60,2013-03-20 08:45:00,
2013-03-20 04:00:00,13.0,9.6,30.52,NNW,337,6.0,24.0,86,0.00,,,-99.99,Weather View 32 v60,2013-03-20 09:00:00,
2013-03-20 04:15:00,12.0,8.9,30.53,NNW,337,6.0,24.0,87,0.00,,,-99.99,Weather View 32 v60,2013-03-20 09:15:00,
2013-03-20 04:30:00,12.0,8.9,30.53,North,360,0.0,22.0,87,0.00,,,-99.99,Weather View 32 v60,2013-03-20 09:30:00,
2013-03-20 04:45:00,12.0,8.9,30.53,North,360,11.0,20.0,87,0.00,,,-99.99,Weather View 32 v60,2013-03-20 09:45:00,
2013-03-20 05:00:00,12.0,9.4,30.53,NNW,337,0.0,22.0,89,0.00,,,-99.99,Weather View 32 v60,2013-03-20 10:00:00,
2013-03-20 05:15:00,12.0,9.9,30.53,NNW,337,13.0,22.0,91,0.00,,,-99.99,Weather View 32 v60,2013-03-20 10:15:00,
2013-03-20 05:30:00,12.0,10.1,30.53,NNW,337,2.0,22.0,92,0.00,,,-99.99,Weather View 32 v60,2013-03-20 10:30:00,
2013-03-20 05:45:00,11.0,9.4,30.54,NNW,337,10.0,22.0,93,0.00,,,-99.99,Weather View 32 v60,2013-03-20 10:45:00,
2013-03-20 05:50:00,11.0,9.4,30.54,NNW,337,10.0,22.0,93,0.00,,,-99.99,Weather View 32 v60,2013-03-20 10:50:00,
2013-03-20 06:00:00,11.0,9.9,30.54,NNW,337,6.0,16.0,95,0.00,,,-99.99,Weather View 32 v60,2013-03-20 11:00:00,
2013-03-20 06:15:00,11.0,9.9,30.53,North,360,6.0,17.0,95,0.00,,,-99.99,Weather View 32 v60,2013-03-20 11:15:00,
2013-03-20 06:30:00,11.0,9.9,30.53,NNW,337,8.0,17.0,95,0.00,,,-99.99,Weather View 32 v60,2013-03-20 11:30:00,
2013-03-20 06:45:00,11.0,10.1,30.54,NNE,22,2.0,17.0,96,0.00,,,-99.99,Weather View 32 v60,2013-03-20 11:45:00,
2013-03-20 06:51:00,11.0,10.1,30.54,NNE,22,2.0,17.0,96,0.00,,,-99.99,Weather View 32 v60,2013-03-20 11:51:00,
2013-03-20 07:00:00,11.0,10.1,30.54,WNW,292,9.0,17.0,96,0.00,,,-99.99,Weather View 32 v60,2013-03-20 12:00:00,
2013-03-20 07:15:00,10.0,9.5,30.54,NNW,337,8.0,15.0,98,0.00,,,-99.99,Weather View 32 v60,2013-03-20 12:15:00,
2013-03-20 07:30:00,10.0,9.5,30.54,NNW,337,5.0,14.0,98,0.00,,,-99.99,Weather View 32 v60,2013-03-20 12:30:00,
2013-03-20 07:45:00,11.0,10.1,30.54,WNW,292,0.0,14.0,96,0.00,,,-99.99,Weather View 32 v60,2013-03-20 12:45:00,
2013-03-20 07:51:00,11.0,10.1,30.54,WNW,292,0.0,14.0,96,0.00,,,-99.99,Weather View 32 v60,2013-03-20 12:51:00,
2013-03-20 08:00:00,11.0,9.9,30.54,WNW,292,1.0,13.0,95,0.00,,,-99.99,Weather View 32 v60,2013-03-20 13:00:00,
2013-03-20 08:15:00,12.0,10.6,30.54,NNW,337,4.0,13.0,94,0.00,,,-99.99,Weather View 32 v60,2013-03-20 13:15:00,
2013-03-20 08:30:00,12.0,10.1,30.54,NNW,337,4.0,13.0,92,0.00,,,-99.99,Weather View 32 v60,2013-03-20 13:30:00,
2013-03-20 08:45:00,12.0,9.9,30.54,WNW,292,3.0,16.0,91,0.00,,,-99.99,Weather View 32 v60,2013-03-20 13:45:00,
2013-03-20 08:52:00,12.0,9.9,30.54,WNW,292,3.0,16.0,91,0.00,,,-99.99,Weather View 32 v60,2013-03-20 13:52:00,
2013-03-20 09:00:00,13.0,9.9,30.54,NNE,22,0.0,17.0,87,0.00,,,-99.99,Weather View 32 v60,2013-03-20 14:00:00,
2013-03-20 09:15:00,14.0,9.5,30.53,NNW,337,1.0,17.0,82,0.00,,,-99.99,Weather View 32 v60,2013-03-20 14:15:00,
2013-03-20 09:30:00,14.0,8.1,30.52,NNE,22,11.0,17.0,77,0.00,,,-99.99,Weather View 32 v60,2013-03-20 14:30:00,
2013-03-20 09:45:00,16.0,9.2,30.53,NNW,337,6.0,18.0,74,0.00,,,-99.99,Weather View 32 v60,2013-03-20 14:45:00,
2013-03-20 09:52:00,16.0,9.2,30.53,NNW,337,6.0,18.0,74,0.00,,,-99.99,Weather View 32 v60,2013-03-20 14:52:00,
2013-03-20 10:00:00,16.0,8.3,30.52,NNE,22,3.0,20.0,71,0.00,,,-99.99,Weather View 32 v60,2013-03-20 15:00:00,
2013-03-20 10:15:00,17.0,7.9,30.51,North,360,5.0,20.0,67,0.00,,,-99.99,Weather View 32 v60,2013-03-20 15:15:00,
2013-03-20 10:30:00,17.0,7.3,30.52,ENE,67,4.0,22.0,65,0.00,,,-99.99,Weather View 32 v60,2013-03-20 15:30:00,
2013-03-20 10:45:00,19.0,8.5,30.51,North,360,11.0,22.0,63,0.00,,,-99.99,Weather View 32 v60,2013-03-20 15:45:00,
2013-03-20 10:53:00,19.0,8.5,30.51,North,360,11.0,22.0,63,0.00,,,-99.99,Weather View 32 v60,2013-03-20 15:53:00,
2013-03-20 11:00:00,18.0,6.1,30.50,NW,315,6.0,22.0,59,0.00,,,-99.99,Weather View 32 v60,2013-03-20 16:00:00,
2013-03-20 11:15:00,20.0,6.8,30.50,NNE,22,7.0,22.0,56,0.00,,,-99.99,Weather View 32 v60,2013-03-20 16:15:00,
2013-03-20 11:30:00,21.0,6.5,30.50,North,360,9.0,19.0,53,0.00,,,-99.99,Weather View 32 v60,2013-03-20 16:30:00,
2013-03-20 11:45:00,21.0,6.1,30.49,North,360,12.0,17.0,52,0.00,,,-99.99,Weather View 32 v60,2013-03-20 16:45:00,
2013-03-20 11:53:00,21.0,6.1,30.49,North,360,12.0,17.0,52,0.00,,,-99.99,Weather View 32 v60,2013-03-20 16:53:00,
2013-03-20 12:00:00,22.0,6.2,30.49,NNE,22,2.0,23.0,50,0.00,,,-99.99,Weather View 32 v60,2013-03-20 17:00:00,
2013-03-20 12:15:00,22.0,7.5,30.48,North,360,3.0,23.0,53,0.00,,,-99.99,Weather View 32 v60,2013-03-20 17:15:00,
2013-03-20 12:30:00,22.0,6.6,30.47,NNE,22,6.0,23.0,51,0.00,,,-99.99,Weather View 32 v60,2013-03-20 17:30:00,
2013-03-20 12:45:00,23.0,6.2,30.46,WNW,292,9.0,23.0,48,0.00,,,-99.99,Weather View 32 v60,2013-03-20 17:45:00,
2013-03-20 12:54:00,23.0,6.2,30.46,WNW,292,9.0,23.0,48,0.00,,,-99.99,Weather View 32 v60,2013-03-20 17:54:00,
2013-03-20 13:00:00,23.0,5.8,30.45,NNW,337,13.0,22.0,47,0.00,,,-99.99,Weather View 32 v60,2013-03-20 18:00:00,
2013-03-20 13:15:00,25.0,6.6,30.44,NW,315,1.0,22.0,45,0.00,,,-99.99,Weather View 32 v60,2013-03-20 18:15:00,
2013-03-20 13:30:00,24.0,6.2,30.43,NNW,337,6.0,17.0,46,0.00,,,-99.99,Weather View 32 v60,2013-03-20 18:30:00,
2013-03-20 13:45:00,26.0,8.5,30.43,WNW,292,6.0,17.0,47,0.00,,,-99.99,Weather View 32 v60,2013-03-20 18:45:00,
2013-03-20 13:55:00,26.0,8.5,30.43,WNW,292,6.0,17.0,47,0.00,,,-99.99,Weather View 32 v60,2013-03-20 18:55:00,
2013-03-20 14:00:00,26.0,7.6,30.41,North,360,1.0,19.0,45,0.00,,,-99.99,Weather View 32 v60,2013-03-20 19:00:00,
2013-03-20 14:15:00,25.0,7.6,30.41,NNW,337,1.0,21.0,47,0.00,,,-99.99,Weather View 32 v60,2013-03-20 19:15:00,
2013-03-20 14:30:00,27.0,8.0,30.40,NNW,337,6.0,21.0,44,0.00,,,-99.99,Weather View 32 v60,2013-03-20 19:30:00,
2013-03-20 14:45:00,28.0,8.4,30.38,WNW,292,10.0,21.0,43,0.00,,,-99.99,Weather View 32 v60,2013-03-20 19:45:00,
2013-03-20 15:00:00,26.0,7.1,30.39,WSW,247,0.0,21.0,44,0.00,,,-99.99,Weather View 32 v60,2013-03-20 20:00:00,
2013-03-20 15:15:00,28.0,8.4,30.38,NE,45,0.0,20.0,43,0.00,,,-99.99,Weather View 32 v60,2013-03-20 20:15:00,
2013-03-20 15:30:00,28.0,7.9,30.37,North,360,6.0,20.0,42,0.00,,,-99.99,Weather View 32 v60,2013-03-20 20:30:00,
2013-03-20 15:45:00,28.0,8.4,30.36,West,270,3.0,19.0,43,0.00,,,-99.99,Weather View 32 v60,2013-03-20 20:45:00,
2013-03-20 15:56:00,28.0,8.4,30.36,West,270,3.0,19.0,43,0.00,,,-99.99,Weather View 32 v60,2013-03-20 20:56:00,
2013-03-20 16:15:00,29.0,7.1,30.34,West,270,7.0,19.0,39,0.00,,,-99.99,Weather View 32 v60,2013-03-20 21:15:00,
2013-03-20 16:30:00,30.0,9.1,30.34,NW,315,11.0,20.0,41,0.00,,,-99.99,Weather View 32 v60,2013-03-20 21:30:00,
2013-03-20 16:45:00,30.0,8.6,30.33,WSW,247,5.0,20.0,40,0.00,,,-99.99,Weather View 32 v60,2013-03-20 21:45:00,
2013-03-20 16:56:00,30.0,8.6,30.33,WSW,247,5.0,20.0,40,0.00,,,-99.99,Weather View 32 v60,2013-03-20 21:56:00,
2013-03-20 17:15:00,31.0,8.9,30.32,NE,45,0.0,20.0,39,0.00,,,-99.99,Weather View 32 v60,2013-03-20 22:15:00,
2013-03-20 17:30:00,30.0,9.7,30.32,NNE,22,7.0,20.0,42,0.00,,,-99.99,Weather View 32 v60,2013-03-20 22:30:00,
2013-03-20 17:45:00,31.0,10.0,30.31,NNE,22,1.0,20.0,41,0.00,,,-99.99,Weather View 32 v60,2013-03-20 22:45:00,
2013-03-20 17:57:00,31.0,10.0,30.31,NNE,22,1.0,20.0,41,0.00,,,-99.99,Weather View 32 v60,2013-03-20 22:57:00,
2013-03-20 18:15:00,31.0,10.0,30.30,ENE,67,0.0,20.0,41,0.00,,,-99.99,Weather View 32 v60,2013-03-20 23:15:00,
2013-03-20 18:30:00,30.0,10.2,30.30,North,360,3.0,19.0,43,0.00,,,-99.99,Weather View 32 v60,2013-03-20 23:30:00,
2013-03-20 18:45:00,29.0,10.3,30.30,NNW,337,2.0,13.0,45,0.00,,,-99.99,Weather View 32 v60,2013-03-20 23:45:00,
2013-03-20 18:57:00,29.0,10.3,30.30,NNW,337,2.0,13.0,45,0.00,,,-99.99,Weather View 32 v60,2013-03-20 23:57:00,
2013-03-20 19:15:00,28.0,10.8,30.30,NNE,22,0.0,13.0,48,0.00,,,-99.99,Weather View 32 v60,2013-03-21 00:15:00,
2013-03-20 19:30:00,26.0,9.9,30.30,NNE,22,0.0,13.0,50,0.00,,,-99.99,Weather View 32 v60,2013-03-21 00:30:00,
2013-03-20 19:45:00,26.0,10.8,30.31,NNE,22,0.0,7.0,52,0.00,,,-99.99,Weather View 32 v60,2013-03-21 00:45:00,
2013-03-20 19:58:00,26.0,10.8,30.31,NNE,22,0.0,7.0,52,0.00,,,-99.99,Weather View 32 v60,2013-03-21 00:58:00,
2013-03-20 20:15:00,23.0,11.6,30.31,NE,45,0.0,4.0,61,0.00,,,-99.99,Weather View 32 v60,2013-03-21 01:15:00,
2013-03-20 20:30:00,22.0,11.7,30.31,NE,45,0.0,4.0,64,0.00,,,-99.99,Weather View 32 v60,2013-03-21 01:30:00,
2013-03-20 20:45:00,22.0,14.4,30.32,ENE,67,0.0,0.0,72,0.00,,,-99.99,Weather View 32 v60,2013-03-21 01:45:00,
2013-03-20 20:59:00,22.0,14.4,30.32,ENE,67,0.0,0.0,72,0.00,,,-99.99,Weather View 32 v60,2013-03-21 01:59:00,
2013-03-20 21:15:00,22.0,15.3,30.31,ENE,67,0.0,0.0,75,0.00,,,-99.99,Weather View 32 v60,2013-03-21 02:15:00,
2013-03-20 21:30:00,21.0,14.0,30.31,ENE,67,0.0,0.0,74,0.00,,,-99.99,Weather View 32 v60,2013-03-21 02:30:00,
2013-03-20 21:45:00,21.0,14.9,30.31,ENE,67,0.0,0.0,77,0.00,,,-99.99,Weather View 32 v60,2013-03-21 02:45:00,
2013-03-20 21:59:00,21.0,14.9,30.31,ENE,67,0.0,0.0,77,0.00,,,-99.99,Weather View 32 v60,2013-03-21 02:59:00,
2013-03-20 22:15:00,20.0,14.5,30.32,ENE,67,0.0,0.0,79,0.00,,,-99.99,Weather View 32 v60,2013-03-21 03:15:00,
2013-03-20 22:30:00,19.0,14.4,30.32,East,90,0.0,0.0,82,0.00,,,-99.99,Weather View 32 v60,2013-03-21 03:30:00,
2013-03-20 22:45:00,20.0,15.1,30.31,East,90,0.0,6.0,81,0.00,,,-99.99,Weather View 32 v60,2013-03-21 03:45:00,
2013-03-20 23:00:00,20.0,15.1,30.31,East,90,0.0,6.0,81,0.00,,,-99.99,Weather View 32 v60,2013-03-21 04:00:00,
2013-03-20 23:15:00,19.0,15.0,30.31,ENE,67,0.0,7.0,84,0.00,,,-99.99,Weather View 32 v60,2013-03-21 04:15:00,
2013-03-20 23:30:00,19.0,15.0,30.30,ENE,67,0.0,7.0,84,0.00,,,-99.99,Weather View 32 v60,2013-03-21 04:30:00,
2013-03-20 23:45:00,18.0,14.5,30.30,East,90,0.0,7.0,86,0.00,,,-99.99,Weather View 32 v60,2013-03-21 04:45:00,